Location: Unspecified
(0.0000°N, 0.0000°E)
Time: 00:40:48
(UTC+00:00)

Envisat - Pass Details

Date: 20 January 2021
Orbit: 764 x 766 km, 98.1° (Epoch: 16 January)

Event Time Altitude Azimuth Distance (km) Brightness Sun altitude
Rises 04:33:24 0° 37° (NE) 3,216 6.4 -22.8°
Reaches altitude 10° 04:36:09 10° 52° (NE) 2,293 5.8 -22.2°
Maximum altitude 04:40:02 22° 102° (ESE) 1,606 5.5 -21.3°
Drops below altitude 10° 04:43:55 10° 153° (SSE) 2,301 6.1 -20.4°
Sets 04:46:41 0° 167° (SSE) 3,230 6.7 -19.7°
